Home   Weather   Trinidad   Past weeks
Flag for Cuba

Past Weather in Trinidad, Cuba — Yesterday and Last 2 Weeks

Now
73 °F

Passing clouds.


Feels Like: 75 °F
Forecast: 86 / 69 °F
Wind: 6 mph from East

Location: Santa Bárbara

Current Time: Apr 3, 2020 at 11:06:37 pm

Latest Report: Apr 3, 2020 at 9:50 pm


Visibility: 6 mi

Pressure: 29.98 "Hg

Humidity: 74%

Dew Point: 64 °F

Location of TrinidadLocation

Past Weather in Trinidad — Graph

°F

Trinidad Temperature Yesterday

Maximum temperature yesterday: 86 °F (at 2:50 pm)
Minimum temperature yesterday: 70 °F (at 10:50 pm)
Average temperature yesterday: 76 °F

High & Low Weather Summary for the Past Weeks

 TemperatureHumidityPressure
High95 °F (Mar 31, 1:50 pm)100% (Mar 21, 7:51 am)30.24 "Hg (Mar 21, 7:51 am)
Low57 °F (Mar 27, 7:15 am)34% (Mar 25, 2:51 pm)29.80 "Hg (Apr 1, 3:50 pm)
Average76 °F74%30.04 "Hg
* Reported Mar 19 9:50 pm — Apr 3 9:50 pm, Trinidad. Weather by CustomWeather, © 2020

Note: Actual official high and low records may vary slightly from our data, if they occured in-between our weather recording intervals... More about our weather records

Trinidad Weather History for the Previous 24 Hours

Scroll right to see more
 ConditionsComfort  
Time TempWeatherWind HumidityBarometerVisibility
9:50 pm
Fri, Apr 3
73 °FPassing clouds.6 mph74%29.98 "Hg6 mi
8:50 pm73 °FPassing clouds.9 mph74%29.95 "Hg6 mi
7:51 pm75 °FPassing clouds.14 mph69%29.92 "Hg6 mi
6:50 pm79 °FPassing clouds.16 mph61%29.89 "Hg6 mi
5:50 pm82 °FPassing clouds.15 mph55%29.89 "Hg6 mi
4:50 pm84 °FPassing clouds.13 mph55%29.89 "Hg6 mi
3:50 pm86 °FScattered clouds.14 mph52%29.89 "Hg6 mi
2:50 pm86 °FScattered clouds.12 mph49%29.92 "Hg6 mi
1:50 pm84 °FPartly sunny.14 mph51%29.95 "Hg6 mi
12:50 pm86 °FPartly sunny.7 mph46%29.98 "Hg6 mi
11:50 am86 °FPartly sunny.6 mph46%29.98 "Hg6 mi
10:50 am82 °FPartly sunny.6 mph58%29.98 "Hg6 mi
9:50 am77 °FPartly sunny.8 mph79%29.98 "Hg6 mi
8:50 am73 °FScattered clouds.6 mph89%29.98 "Hg6 mi
7:50 am64 °FPartly sunny.1 mph100%29.95 "Hg4 mi
6:50 am66 °FFog.2 mph94%29.95 "Hg3 mi
5:50 am64 °FPassing clouds.2 mph100%29.92 "Hg5 mi
4:50 am66 °FPassing clouds.1 mph100%29.92 "Hg6 mi
3:50 am68 °FPassing clouds.2 mph94%29.92 "Hg5 mi
2:50 am68 °FPassing clouds.3 mph94%29.92 "Hg5 mi
1:51 am68 °FPassing clouds.2 mph94%29.95 "Hg5 mi
12:51 am70 °FPassing clouds.3 mph94%29.95 "Hg5 mi
11:50 pm
Thu, Apr 2
70 °FPassing clouds.1 mph94%29.98 "Hg5 mi
Weather by CustomWeather, © 2020

See weather overview

Advertising